Time,TemperatureF,DewpointF,PressureIn,WindDirection,WindDirectionDegrees,WindSpeedMPH,WindSpeedGustMPH,Humidity,HourlyPrecipIn,Conditions,Clouds,dailyrainin,SoftwareType,DateUTC
2013-11-16 00:00:00,46.0,38.0,-100.00,SE,136,4.0,-999.0,74,0.00,,,-99.99,,2013-11-16 08:00:00,
2013-11-16 00:42:00,46.0,38.0,-100.00,SE,136,4.0,-999.0,74,0.00,,,-99.99,,2013-11-16 08:42:00,
2013-11-16 00:52:00,46.0,38.0,-100.00,SE,136,4.0,-999.0,74,0.00,,,-99.99,,2013-11-16 08:52:00,
2013-11-16 01:00:00,45.0,39.0,-100.00,SE,142,2.0,-999.0,78,0.00,,,-99.99,,2013-11-16 09:00:00,
2013-11-16 01:43:00,45.0,39.0,-100.00,SE,142,2.0,-999.0,78,0.00,,,-99.99,,2013-11-16 09:43:00,
2013-11-16 01:53:00,45.0,39.0,-100.00,SE,142,2.0,-999.0,78,0.00,,,-99.99,,2013-11-16 09:53:00,
2013-11-16 02:00:00,44.0,38.0,-100.00,NNE,20,2.0,-999.0,80,0.00,,,-99.99,,2013-11-16 10:00:00,
2013-11-16 02:43:00,44.0,38.0,-100.00,NNE,20,2.0,-999.0,80,0.00,,,-99.99,,2013-11-16 10:43:00,
2013-11-16 02:52:00,44.0,38.0,-100.00,NNE,20,2.0,-999.0,80,0.00,,,-99.99,,2013-11-16 10:52:00,
2013-11-16 03:00:00,44.0,38.0,-100.00,SSE,148,4.0,-999.0,78,0.00,,,-99.99,,2013-11-16 11:00:00,
2013-11-16 03:42:00,44.0,38.0,-100.00,SSE,148,4.0,-999.0,78,0.00,,,-99.99,,2013-11-16 11:42:00,
2013-11-16 03:53:00,44.0,38.0,-100.00,SSE,148,4.0,-999.0,78,0.00,,,-99.99,,2013-11-16 11:53:00,
2013-11-16 04:00:00,42.0,37.0,-100.00,ESE,112,2.0,-999.0,81,0.00,,,-99.99,,2013-11-16 12:00:00,
2013-11-16 04:42:00,42.0,37.0,-100.00,ESE,112,2.0,-999.0,81,0.00,,,-99.99,,2013-11-16 12:42:00,
2013-11-16 04:52:00,42.0,37.0,-100.00,ESE,112,2.0,-999.0,81,0.00,,,-99.99,,2013-11-16 12:52:00,
2013-11-16 05:00:00,44.0,37.0,-100.00,SE,129,3.0,-999.0,77,0.00,,,-99.99,,2013-11-16 13:00:00,
2013-11-16 05:42:00,44.0,37.0,-100.00,SE,129,3.0,-999.0,77,0.00,,,-99.99,,2013-11-16 13:42:00,
2013-11-16 05:52:00,44.0,37.0,-100.00,SE,129,3.0,-999.0,77,0.00,,,-99.99,,2013-11-16 13:52:00,
2013-11-16 06:00:00,43.0,38.0,-100.00,ESE,102,2.0,-999.0,79,0.00,,,-99.99,,2013-11-16 14:00:00,
2013-11-16 06:42:00,43.0,38.0,-100.00,ESE,102,2.0,-999.0,79,0.00,,,-99.99,,2013-11-16 14:42:00,
2013-11-16 06:52:00,43.0,38.0,-100.00,ESE,102,2.0,-999.0,79,0.00,,,-99.99,,2013-11-16 14:52:00,
2013-11-16 07:00:00,43.0,36.0,-100.00,ESE,104,3.0,-999.0,77,0.00,,,-99.99,,2013-11-16 15:00:00,
2013-11-16 07:43:00,43.0,36.0,-100.00,ESE,104,3.0,-999.0,77,0.00,,,-99.99,,2013-11-16 15:43:00,
2013-11-16 07:53:00,43.0,36.0,-100.00,ESE,104,3.0,-999.0,77,0.00,,,-99.99,,2013-11-16 15:53:00,
2013-11-16 08:00:00,43.0,37.0,-100.00,SE,133,2.0,-999.0,79,0.00,,,-99.99,,2013-11-16 16:00:00,
2013-11-16 08:43:00,43.0,37.0,-100.00,SE,133,2.0,-999.0,79,0.00,,,-99.99,,2013-11-16 16:43:00,
2013-11-16 08:53:00,43.0,37.0,-100.00,SE,133,2.0,-999.0,79,0.00,,,-99.99,,2013-11-16 16:53:00,
2013-11-16 09:00:00,54.0,41.0,-100.00,East,85,1.0,-999.0,60,0.00,,,-99.99,,2013-11-16 17:00:00,
2013-11-16 09:43:00,54.0,41.0,-100.00,East,85,1.0,-999.0,60,0.00,,,-99.99,,2013-11-16 17:43:00,
2013-11-16 09:52:00,54.0,41.0,-100.00,East,85,1.0,-999.0,60,0.00,,,-99.99,,2013-11-16 17:52:00,
2013-11-16 10:00:00,58.0,40.0,-100.00,SSE,165,7.0,-999.0,50,0.00,,,-99.99,,2013-11-16 18:00:00,
2013-11-16 10:42:00,58.0,40.0,-100.00,SSE,165,7.0,-999.0,50,0.00,,,-99.99,,2013-11-16 18:42:00,
2013-11-16 10:52:00,58.0,40.0,-100.00,SSE,165,7.0,-999.0,50,0.00,,,-99.99,,2013-11-16 18:52:00,
2013-11-16 11:00:00,62.0,40.0,-100.00,SW,217,6.0,-999.0,43,0.00,,,-99.99,,2013-11-16 19:00:00,
2013-11-16 11:42:00,62.0,40.0,-100.00,SW,217,6.0,-999.0,43,0.00,,,-99.99,,2013-11-16 19:42:00,
2013-11-16 11:53:00,62.0,40.0,-100.00,SW,217,6.0,-999.0,43,0.00,,,-99.99,,2013-11-16 19:53:00,
2013-11-16 12:00:00,65.0,38.0,-100.00,SW,217,5.0,-999.0,37,0.00,,,-99.99,,2013-11-16 20:00:00,
2013-11-16 12:42:00,65.0,38.0,-100.00,SW,217,5.0,-999.0,37,0.00,,,-99.99,,2013-11-16 20:42:00,
2013-11-16 12:53:00,65.0,38.0,-100.00,SW,217,5.0,-999.0,37,0.00,,,-99.99,,2013-11-16 20:53:00,
2013-11-16 13:00:00,65.0,38.0,-100.00,South,182,2.0,-999.0,36,0.00,,,-99.99,,2013-11-16 21:00:00,
2013-11-16 13:44:00,65.0,38.0,-100.00,South,182,2.0,-999.0,36,0.00,,,-99.99,,2013-11-16 21:44:00,
2013-11-16 13:54:00,65.0,38.0,-100.00,South,182,2.0,-999.0,36,0.00,,,-99.99,,2013-11-16 21:54:00,
2013-11-16 14:00:00,67.0,38.0,-100.00,SW,215,9.0,-999.0,34,0.00,,,-99.99,,2013-11-16 22:00:00,
2013-11-16 14:42:00,67.0,38.0,-100.00,SW,215,9.0,-999.0,34,0.00,,,-99.99,,2013-11-16 22:42:00,
2013-11-16 14:53:00,67.0,38.0,-100.00,SW,215,9.0,-999.0,34,0.00,,,-99.99,,2013-11-16 22:53:00,
2013-11-16 15:00:00,67.0,37.0,-100.00,SSW,195,3.0,-999.0,33,0.00,,,-99.99,,2013-11-16 23:00:00,
2013-11-16 15:43:00,67.0,37.0,-100.00,SSW,195,3.0,-999.0,33,0.00,,,-99.99,,2013-11-16 23:43:00,
2013-11-16 15:53:00,67.0,37.0,-100.00,SSW,195,3.0,-999.0,33,0.00,,,-99.99,,2013-11-16 23:53:00,
2013-11-16 16:00:00,67.0,37.0,-100.00,SW,235,6.0,-999.0,32,0.00,,,-99.99,,2013-11-17 00:00:00,
2013-11-16 16:42:00,67.0,37.0,-100.00,SW,235,6.0,-999.0,32,0.00,,,-99.99,,2013-11-17 00:42:00,
2013-11-16 16:52:00,67.0,37.0,-100.00,SW,235,6.0,-999.0,32,0.00,,,-99.99,,2013-11-17 00:52:00,
2013-11-16 17:00:00,65.0,36.0,-100.00,NW,313,3.0,-999.0,34,0.00,,,-99.99,,2013-11-17 01:00:00,
2013-11-16 17:42:00,65.0,36.0,-100.00,NW,313,3.0,-999.0,34,0.00,,,-99.99,,2013-11-17 01:42:00,
2013-11-16 17:52:00,65.0,36.0,-100.00,NW,313,3.0,-999.0,34,0.00,,,-99.99,,2013-11-17 01:52:00,
2013-11-16 18:00:00,60.0,38.0,-100.00,NNE,22,3.0,-999.0,43,0.00,,,-99.99,,2013-11-17 02:00:00,
2013-11-16 18:42:00,60.0,38.0,-100.00,NNE,22,3.0,-999.0,43,0.00,,,-99.99,,2013-11-17 02:42:00,
2013-11-16 18:52:00,60.0,38.0,-100.00,NNE,22,3.0,-999.0,43,0.00,,,-99.99,,2013-11-17 02:52:00,
2013-11-16 19:00:00,-999.0,-99.9,-100.00,East,81,2.0,-999.0,-999,-99.99,,,-99.99,,2013-11-17 03:00:00,
2013-11-16 19:44:00,57.0,38.0,-100.00,East,81,2.0,-999.0,49,0.00,,,-99.99,,2013-11-17 03:44:00,
2013-11-16 19:56:00,57.0,38.0,-100.00,East,81,2.0,-999.0,49,0.00,,,-99.99,,2013-11-17 03:56:00,
2013-11-16 20:00:00,51.0,39.0,-100.00,SE,126,4.0,-999.0,63,0.00,,,-99.99,,2013-11-17 04:00:00,
2013-11-16 20:43:00,51.0,39.0,-100.00,SE,126,4.0,-999.0,63,0.00,,,-99.99,,2013-11-17 04:43:00,
2013-11-16 20:53:00,51.0,39.0,-100.00,SE,126,4.0,-999.0,63,0.00,,,-99.99,,2013-11-17 04:53:00,
2013-11-16 21:00:00,51.0,38.0,-100.00,NNW,331,1.0,-999.0,60,0.00,,,-99.99,,2013-11-17 05:00:00,
2013-11-16 21:44:00,51.0,38.0,-100.00,NNW,331,1.0,-999.0,60,0.00,,,-99.99,,2013-11-17 05:44:00,
2013-11-16 21:53:00,51.0,38.0,-100.00,NNW,331,1.0,-999.0,60,0.00,,,-99.99,,2013-11-17 05:53:00,
2013-11-16 22:00:00,50.0,38.0,-100.00,ENE,73,1.0,-999.0,62,0.00,,,-99.99,,2013-11-17 06:00:00,
2013-11-16 22:42:00,50.0,38.0,-100.00,ENE,73,1.0,-999.0,62,0.00,,,-99.99,,2013-11-17 06:42:00,
2013-11-16 22:52:00,50.0,38.0,-100.00,ENE,73,1.0,-999.0,62,0.00,,,-99.99,,2013-11-17 06:52:00,
2013-11-16 23:00:00,47.0,37.0,-100.00,SW,233,5.0,-999.0,68,0.00,,,-99.99,,2013-11-17 07:00:00,
2013-11-16 23:42:00,47.0,37.0,-100.00,SW,233,5.0,-999.0,68,0.00,,,-99.99,,2013-11-17 07:42:00,
2013-11-16 23:53:00,47.0,37.0,-100.00,SW,233,5.0,-999.0,68,0.00,,,-99.99,,2013-11-17 07:53:00,